When you browse on this site, cookies collect data to enhance your experience and personalize the content and advertising you see.
Visit our Privacy Policy to learn more. By continuing to use the site, you agree to this use of cookies and data.
  • In Latvia
  • List of Countries
  • For 7 days
  • Water Temperature
  • Satellite Maps
  • Weather Map
  • Weather Widgets
  • user-avatar
    Login

    Hourly Weather Saurimo

    Today, 26 May, Sunday

    Time Temperature Precipitation Wind Pressure Humidity
    00:00 +19°C° 0 mm 2 mps 671 mmHg 47%
    01:00 +19°C° 0 mm 2 mps 671 mmHg 48%
    02:00 +18°C° 0 mm 3 mps 671 mmHg 48%
    03:00 +18°C° 0 mm 3 mps 671 mmHg 48%
    04:00 +18°C° 0 mm 3 mps 671 mmHg 48%
    05:00 +18°C° 0 mm 3 mps 671 mmHg 47%
    06:00 +19°C° 0 mm 3 mps 671 mmHg 46%
    07:00 +20°C° 0 mm 4 mps 672 mmHg 46%
    08:00 +22°C° 0 mm 4 mps 672 mmHg 43%
    09:00 +25°C° 0 mm 4 mps 672 mmHg 40%
    10:00 +28°C° 0 mm 4 mps 673 mmHg 36%
    11:00 +29°C° 0 mm 3 mps 672 mmHg 34%
    12:00 +31°C° 0 mm 3 mps 672 mmHg 32%
    13:00 +32°C° 0 mm 2 mps 672 mmHg 30%
    14:00 +32°C° 0 mm 2 mps 671 mmHg 30%
    15:00 +32°C° 0 mm 2 mps 671 mmHg 30%
    16:00 +31°C° 0 mm 1 mps 670 mmHg 30%
    17:00 +29°C° 0 mm 1 mps 670 mmHg 36%
    18:00 +26°C° 0 mm 1 mps 670 mmHg 42%
    19:00 +24°C° 0 mm 2 mps 670 mmHg 48%
    20:00 +23°C° 0 mm 2 mps 670 mmHg 50%
    21:00 +23°C° 0 mm 2 mps 670 mmHg 52%
    22:00 +21°C° 0 mm 2 mps 670 mmHg 53%
    23:00 +21°C° 0 mm 2 mps 670 mmHg 53%

    Tomorrow, 27 May, Monday

    Time Temperature Precipitation Wind Pressure Humidity
    00:00 +21°C° 0 mm 2 mps 670 mmHg 53%
    01:00 +21°C° 0 mm 2 mps 670 mmHg 52%
    02:00 +20°C° 0 mm 3 mps 670 mmHg 52%
    03:00 +20°C° 0 mm 3 mps 670 mmHg 51%
    04:00 +20°C° 0 mm 3 mps 670 mmHg 50%
    05:00 +20°C° 0 mm 3 mps 670 mmHg 50%
    06:00 +20°C° 0 mm 3 mps 671 mmHg 49%
    07:00 +21°C° 0 mm 4 mps 671 mmHg 49%
    08:00 +23°C° 0 mm 4 mps 671 mmHg 45%
    09:00 +27°C° 0 mm 4 mps 672 mmHg 42%
    10:00 +29°C° 0 mm 4 mps 673 mmHg 39%
    11:00 +30°C° 0 mm 3 mps 672 mmHg 37%
    12:00 +31°C° 0 mm 2 mps 672 mmHg 35%
    13:00 +32°C° 0 mm 2 mps 671 mmHg 32%
    14:00 +31°C° 0 mm 2 mps 671 mmHg 35%
    15:00 +30°C° 0 mm 1 mps 670 mmHg 37%
    16:00 +30°C° 0 mm 1 mps 669 mmHg 40%
    17:00 +28°C° 0 mm 1 mps 669 mmHg 45%
    18:00 +26°C° 0 mm 1 mps 670 mmHg 49%
    19:00 +24°C° 0 mm 1 mps 670 mmHg 54%
    20:00 +24°C° 0 mm 1 mps 670 mmHg 56%
    21:00 +23°C° 0 mm 1 mps 670 mmHg 58%
    22:00 +23°C° 0 mm 1 mps 670 mmHg 61%
    23:00 +22°C° 0 mm 1 mps 670 mmHg 62%

    Day after tomorrow, 28 May, Tuesday

    Time Temperature Precipitation Wind Pressure Humidity
    00:00 +22°C° 0 mm 1 mps 670 mmHg 64%
    01:00 +21°C° 0 mm 1 mps 670 mmHg 66%
    02:00 +21°C° 0 mm 1 mps 669 mmHg 67%
    03:00 +20°C° 0 mm 1 mps 669 mmHg 68%
    04:00 +20°C° 0 mm 1 mps 669 mmHg 69%
    05:00 +20°C° 0 mm 1 mps 669 mmHg 67%
    06:00 +20°C° 0 mm 2 mps 670 mmHg 64%
    07:00 +21°C° 0 mm 2 mps 670 mmHg 61%
    08:00 +24°C° 0 mm 2 mps 671 mmHg 54%
    09:00 +27°C° 0 mm 2 mps 672 mmHg 47%
    10:00 +30°C° 0 mm 2 mps 673 mmHg 39%
    11:00 +31°C° 0 mm 2 mps 672 mmHg 36%
    12:00 +32°C° 0 mm 2 mps 672 mmHg 32%
    13:00 +34°C° 0 mm 2 mps 671 mmHg 28%
    14:00 +33°C° 0 mm 1 mps 671 mmHg 30%
    15:00 +32°C° 0 mm 1 mps 670 mmHg 31%
    16:00 +31°C° 0 mm 1 mps 670 mmHg 33%
    17:00 +29°C° 0 mm 1 mps 670 mmHg 37%
    18:00 +27°C° 0 mm 1 mps 670 mmHg 41%
    19:00 +25°C° 0 mm 1 mps 670 mmHg 45%
    20:00 +25°C° 0 mm 1 mps 670 mmHg 46%
    21:00 +24°C° 0 mm 1 mps 670 mmHg 47%
    22:00 +24°C° 0 mm 1 mps 671 mmHg 49%
    23:00 +21°C° 0 mm 0 mps 670 mmHg 50%

    29 May, Wednesday

    Time Temperature Precipitation Wind Pressure Humidity
    00:00 +21°C° 0 mm 0 mps 670 mmHg 51%
    01:00 +21°C° 0 mm 0 mps 670 mmHg 52%
    02:00 +22°C° 0 mm 1 mps 669 mmHg 53%
    03:00 +21°C° 0 mm 1 mps 669 mmHg 55%
    04:00 +21°C° 0 mm 1 mps 669 mmHg 57%
    05:00 +21°C° 0 mm 1 mps 669 mmHg 57%
    06:00 +21°C° 0 mm 1 mps 670 mmHg 57%
    07:00 +21°C° 0 mm 1 mps 671 mmHg 56%
    08:00 +24°C° 0 mm 2 mps 671 mmHg 49%
    09:00 +27°C° 0 mm 2 mps 672 mmHg 42%
    10:00 +30°C° 0 mm 2 mps 673 mmHg 35%
    11:00 +31°C° 0 mm 2 mps 672 mmHg 33%
    12:00 +32°C° 0 mm 2 mps 671 mmHg 30%
    13:00 +33°C° 0 mm 1 mps 671 mmHg 28%
    14:00 +32°C° 0 mm 1 mps 670 mmHg 29%
    15:00 +31°C° 0 mm 1 mps 670 mmHg 30%
    16:00 +31°C° 0 mm 1 mps 669 mmHg 32%
    17:00 +29°C° 0 mm 1 mps 670 mmHg 35%
    18:00 +27°C° 0 mm 1 mps 670 mmHg 39%
    19:00 +26°C° 0 mm 1 mps 670 mmHg 42%
    20:00 +25°C° 0 mm 1 mps 670 mmHg 45%
    21:00 +24°C° 0 mm 1 mps 670 mmHg 48%
    22:00 +23°C° 0 mm 1 mps 670 mmHg 50%
    23:00 +22°C° 0 mm 1 mps 670 mmHg 52%

    30 May, Thursday

    Time Temperature Precipitation Wind Pressure Humidity
    00:00 +22°C° 0 mm 1 mps 670 mmHg 53%
    01:00 +21°C° 0 mm 1 mps 669 mmHg 55%
    02:00 +21°C° 0 mm 1 mps 669 mmHg 54%
    03:00 +21°C° 0 mm 1 mps 669 mmHg 54%
    04:00 +21°C° 0 mm 1 mps 669 mmHg 54%
    05:00 +21°C° 0 mm 1 mps 670 mmHg 52%
    06:00 +21°C° 0 mm 1 mps 670 mmHg 51%
    07:00 +21°C° 0 mm 2 mps 671 mmHg 49%
    08:00 +24°C° 0 mm 2 mps 672 mmHg 43%
    09:00 +27°C° 0 mm 2 mps 672 mmHg 38%
    10:00 +30°C° 0 mm 2 mps 673 mmHg 32%
    11:00 +31°C° 0 mm 2 mps 672 mmHg 30%
    12:00 +32°C° 0 mm 2 mps 672 mmHg 28%
    13:00 +34°C° 0 mm 2 mps 671 mmHg 26%
    14:00 +32°C° 0 mm 2 mps 670 mmHg 28%
    15:00 +31°C° 0 mm 1 mps 670 mmHg 30%
    16:00 +31°C° 0 mm 1 mps 670 mmHg 31%
    17:00 +28°C° 0 mm 1 mps 670 mmHg 36%
    18:00 +26°C° 0 mm 1 mps 670 mmHg 40%
    19:00 +24°C° 0 mm 1 mps 670 mmHg 45%
    20:00 +24°C° 0 mm 1 mps 670 mmHg 47%
    21:00 +23°C° 0 mm 1 mps 670 mmHg 48%
    22:00 +22°C° 0 mm 1 mps 670 mmHg 50%
    23:00 +22°C° 0 mm 1 mps 670 mmHg 51%

    31 May, Friday

    Time Temperature Precipitation Wind Pressure Humidity
    00:00 +21°C° 0 mm 1 mps 669 mmHg 51%
    01:00 +21°C° 0 mm 1 mps 669 mmHg 51%
    02:00 +21°C° 0 mm 1 mps 669 mmHg 51%
    03:00 +20°C° 0 mm 1 mps 669 mmHg 51%
    04:00 +20°C° 0 mm 1 mps 669 mmHg 51%
    05:00 +21°C° 0 mm 1 mps 670 mmHg 50%
    06:00 +21°C° 0 mm 1 mps 670 mmHg 49%
    07:00 +21°C° 0 mm 1 mps 671 mmHg 49%
    08:00 +25°C° 0 mm 1 mps 671 mmHg 41%
    09:00 +28°C° 0 mm 1 mps 672 mmHg 34%
    10:00 +31°C° 0 mm 1 mps 673 mmHg 27%
    11:00 +32°C° 0 mm 2 mps 672 mmHg 24%
    12:00 +34°C° 0 mm 2 mps 672 mmHg 22%
    13:00 +35°C° 0 mm 2 mps 671 mmHg 20%
    14:00 +35°C° 0 mm 2 mps 671 mmHg 21%
    15:00 +34°C° 0 mm 2 mps 670 mmHg 21%
    16:00 +34°C° 0 mm 2 mps 670 mmHg 22%
    17:00 +30°C° 0 mm 2 mps 670 mmHg 26%
    18:00 +28°C° 0 mm 2 mps 670 mmHg 30%
    19:00 +26°C° 0 mm 1 mps 670 mmHg 34%
    20:00 +25°C° 0 mm 1 mps 670 mmHg 36%
    21:00 +24°C° 0 mm 2 mps 670 mmHg 37%
    22:00 +23°C° 0 mm 2 mps 670 mmHg 39%
    23:00 +22°C° 0 mm 1 mps 670 mmHg 41%
    Show more